• In Deutschland
  • Länderverzeichnis
  • Für 7 Tage
  • Wassertemperatur
  • Satellitenkarten
  • Wetterkarte
  • Widgets
  • user-avatar
    Anmelden

    Stündliche Wetter Kuntaur

    Heute, 12 Dezember, Dienstag

    Zeit Temperatur Niederschläge Wind Luftdruck Luftfeuchtigkeit
    00:00 +25°C° 0 mm 3 m/S 757 mmHg 18%
    01:00 +24°C° 0 mm 2 m/S 757 mmHg 19%
    02:00 +23°C° 0 mm 2 m/S 757 mmHg 20%
    03:00 +23°C° 0 mm 2 m/S 757 mmHg 20%
    04:00 +22°C° 0 mm 1 m/S 758 mmHg 21%
    05:00 +22°C° 0 mm 1 m/S 758 mmHg 21%
    06:00 +23°C° 0 mm 1 m/S 758 mmHg 20%
    07:00 +24°C° 0 mm 1 m/S 758 mmHg 18%
    08:00 +25°C° 0 mm 2 m/S 759 mmHg 17%
    09:00 +28°C° 0 mm 2 m/S 759 mmHg 15%
    10:00 +30°C° 0 mm 2 m/S 758 mmHg 13%
    11:00 +34°C° 0 mm 3 m/S 758 mmHg 11%
    12:00 +35°C° 0 mm 2 m/S 757 mmHg 10%
    13:00 +36°C° 0 mm 2 m/S 757 mmHg 10%
    14:00 +37°C° 0 mm 2 m/S 756 mmHg 10%
    15:00 +36°C° 0 mm 2 m/S 756 mmHg 11%
    16:00 +35°C° 0 mm 2 m/S 756 mmHg 11%
    17:00 +35°C° 0 mm 2 m/S 756 mmHg 12%
    18:00 +32°C° 0 mm 2 m/S 756 mmHg 14%
    19:00 +30°C° 0 mm 2 m/S 757 mmHg 15%
    20:00 +28°C° 0 mm 2 m/S 757 mmHg 16%
    21:00 +27°C° 0 mm 2 m/S 758 mmHg 16%
    22:00 +26°C° 0 mm 3 m/S 758 mmHg 17%
    23:00 +25°C° 0 mm 3 m/S 758 mmHg 17%

    Morgen, 13 Dezember, Mittwoch

    Zeit Temperatur Niederschläge Wind Luftdruck Luftfeuchtigkeit
    00:00 +24°C° 0 mm 3 m/S 758 mmHg 18%
    01:00 +22°C° 0 mm 3 m/S 758 mmHg 19%
    02:00 +21°C° 0 mm 3 m/S 758 mmHg 21%
    03:00 +21°C° 0 mm 3 m/S 758 mmHg 20%
    04:00 +20°C° 0 mm 3 m/S 758 mmHg 19%
    05:00 +19°C° 0 mm 2 m/S 758 mmHg 19%
    06:00 +20°C° 0 mm 3 m/S 758 mmHg 17%
    07:00 +21°C° 0 mm 3 m/S 759 mmHg 15%
    08:00 +24°C° 0 mm 3 m/S 759 mmHg 13%
    09:00 +26°C° 0 mm 3 m/S 759 mmHg 11%
    10:00 +29°C° 0 mm 3 m/S 759 mmHg 10%
    11:00 +33°C° 0 mm 3 m/S 759 mmHg 8%
    12:00 +34°C° 0 mm 2 m/S 758 mmHg 8%
    13:00 +35°C° 0 mm 2 m/S 757 mmHg 8%
    14:00 +36°C° 0 mm 2 m/S 756 mmHg 8%
    15:00 +36°C° 0 mm 2 m/S 756 mmHg 9%
    16:00 +35°C° 0 mm 2 m/S 756 mmHg 9%
    17:00 +34°C° 0 mm 2 m/S 756 mmHg 10%
    18:00 +31°C° 0 mm 2 m/S 757 mmHg 11%
    19:00 +29°C° 0 mm 2 m/S 757 mmHg 13%
    20:00 +27°C° 0 mm 3 m/S 758 mmHg 15%
    21:00 +26°C° 0 mm 3 m/S 758 mmHg 19%
    22:00 +25°C° 0 mm 3 m/S 758 mmHg 23%
    23:00 +24°C° 0 mm 3 m/S 759 mmHg 28%

    übermorgen, 14 Dezember, Donnerstag

    Zeit Temperatur Niederschläge Wind Luftdruck Luftfeuchtigkeit
    00:00 +22°C° 0 mm 3 m/S 758 mmHg 31%
    01:00 +21°C° 0 mm 3 m/S 758 mmHg 33%
    02:00 +21°C° 0 mm 3 m/S 758 mmHg 36%
    03:00 +20°C° 0 mm 3 m/S 758 mmHg 36%
    04:00 +19°C° 0 mm 3 m/S 758 mmHg 35%
    05:00 +19°C° 0 mm 3 m/S 758 mmHg 34%
    06:00 +20°C° 0 mm 3 m/S 759 mmHg 31%
    07:00 +21°C° 0 mm 4 m/S 759 mmHg 29%
    08:00 +21°C° 0 mm 4 m/S 760 mmHg 26%
    09:00 +25°C° 0 mm 4 m/S 760 mmHg 23%
    10:00 +28°C° 0 mm 4 m/S 759 mmHg 19%
    11:00 +30°C° 0 mm 3 m/S 759 mmHg 16%
    12:00 +33°C° 0 mm 3 m/S 758 mmHg 15%
    13:00 +34°C° 0 mm 2 m/S 757 mmHg 13%
    14:00 +36°C° 0 mm 2 m/S 756 mmHg 12%
    15:00 +35°C° 0 mm 2 m/S 756 mmHg 13%
    16:00 +34°C° 0 mm 2 m/S 756 mmHg 14%
    17:00 +34°C° 0 mm 2 m/S 756 mmHg 14%
    18:00 +31°C° 0 mm 2 m/S 757 mmHg 16%
    19:00 +29°C° 0 mm 2 m/S 758 mmHg 17%
    20:00 +27°C° 0 mm 3 m/S 758 mmHg 19%
    21:00 +26°C° 0 mm 3 m/S 759 mmHg 19%
    22:00 +26°C° 0 mm 3 m/S 759 mmHg 19%
    23:00 +25°C° 0 mm 4 m/S 759 mmHg 19%

    15 Dezember, Freitag

    Zeit Temperatur Niederschläge Wind Luftdruck Luftfeuchtigkeit
    00:00 +24°C° 0 mm 3 m/S 759 mmHg 19%
    01:00 +22°C° 0 mm 3 m/S 758 mmHg 20%
    02:00 +22°C° 0 mm 3 m/S 758 mmHg 21%
    03:00 +21°C° 0 mm 3 m/S 758 mmHg 21%
    04:00 +20°C° 0 mm 3 m/S 758 mmHg 22%
    05:00 +20°C° 0 mm 2 m/S 758 mmHg 22%
    06:00 +21°C° 0 mm 3 m/S 759 mmHg 20%
    07:00 +22°C° 0 mm 3 m/S 759 mmHg 18%
    08:00 +25°C° 0 mm 3 m/S 760 mmHg 17%
    09:00 +27°C° 0 mm 3 m/S 760 mmHg 15%
    10:00 +30°C° 0 mm 3 m/S 759 mmHg 13%
    11:00 +34°C° 0 mm 3 m/S 759 mmHg 11%
    12:00 +35°C° 0 mm 3 m/S 758 mmHg 11%
    13:00 +36°C° 0 mm 3 m/S 757 mmHg 11%
    14:00 +37°C° 0 mm 2 m/S 756 mmHg 11%
    15:00 +37°C° 0 mm 2 m/S 756 mmHg 12%
    16:00 +36°C° 0 mm 2 m/S 756 mmHg 12%
    17:00 +34°C° 0 mm 1 m/S 756 mmHg 13%
    18:00 +32°C° 0 mm 2 m/S 757 mmHg 14%
    19:00 +31°C° 0 mm 2 m/S 758 mmHg 16%
    20:00 +29°C° 0 mm 2 m/S 758 mmHg 17%
    21:00 +28°C° 0 mm 3 m/S 758 mmHg 16%
    22:00 +27°C° 0 mm 3 m/S 758 mmHg 15%
    23:00 +27°C° 0 mm 3 m/S 759 mmHg 14%

    16 Dezember, Samstag

    Zeit Temperatur Niederschläge Wind Luftdruck Luftfeuchtigkeit
    00:00 +26°C° 0 mm 3 m/S 758 mmHg 14%
    01:00 +26°C° 0 mm 3 m/S 758 mmHg 14%
    02:00 +25°C° 0 mm 3 m/S 758 mmHg 14%
    03:00 +25°C° 0 mm 3 m/S 758 mmHg 14%
    04:00 +24°C° 0 mm 3 m/S 758 mmHg 14%
    05:00 +24°C° 0 mm 3 m/S 758 mmHg 14%
    06:00 +25°C° 0 mm 3 m/S 759 mmHg 13%
    07:00 +26°C° 0 mm 3 m/S 759 mmHg 12%
    08:00 +27°C° 0 mm 4 m/S 760 mmHg 12%
    09:00 +29°C° 0 mm 4 m/S 759 mmHg 10%
    10:00 +33°C° 0 mm 4 m/S 759 mmHg 9%
    11:00 +36°C° 0 mm 4 m/S 759 mmHg 8%
    12:00 +37°C° 0 mm 4 m/S 758 mmHg 8%
    13:00 +38°C° 0 mm 3 m/S 757 mmHg 8%
    14:00 +39°C° 0 mm 3 m/S 756 mmHg 8%
    15:00 +38°C° 0 mm 3 m/S 756 mmHg 9%
    16:00 +37°C° 0 mm 2 m/S 756 mmHg 10%
    17:00 +37°C° 0 mm 2 m/S 756 mmHg 10%
    18:00 +35°C° 0 mm 2 m/S 757 mmHg 12%
    19:00 +32°C° 0 mm 2 m/S 758 mmHg 13%
    20:00 +30°C° 0 mm 2 m/S 758 mmHg 14%
    21:00 +29°C° 0 mm 3 m/S 758 mmHg 14%
    22:00 +29°C° 0 mm 4 m/S 758 mmHg 14%
    23:00 +28°C° 0 mm 4 m/S 758 mmHg 13%

    17 Dezember, Sonntag

    Zeit Temperatur Niederschläge Wind Luftdruck Luftfeuchtigkeit
    00:00 +27°C° 0 mm 4 m/S 758 mmHg 13%
    01:00 +26°C° 0 mm 4 m/S 758 mmHg 13%
    02:00 +26°C° 0 mm 4 m/S 758 mmHg 14%
    03:00 +25°C° 0 mm 3 m/S 758 mmHg 15%
    04:00 +24°C° 0 mm 3 m/S 758 mmHg 16%
    05:00 +23°C° 0 mm 2 m/S 758 mmHg 17%
    06:00 +24°C° 0 mm 3 m/S 759 mmHg 16%
    07:00 +26°C° 0 mm 3 m/S 759 mmHg 15%
    08:00 +27°C° 0 mm 4 m/S 760 mmHg 15%
    09:00 +29°C° 0 mm 4 m/S 759 mmHg 13%
    10:00 +33°C° 0 mm 4 m/S 759 mmHg 11%
    11:00 +36°C° 0 mm 4 m/S 759 mmHg 10%
    12:00 +37°C° 0 mm 3 m/S 758 mmHg 10%
    13:00 +38°C° 0 mm 3 m/S 757 mmHg 10%
    14:00 +39°C° 0 mm 3 m/S 756 mmHg 10%
    15:00 +38°C° 0 mm 3 m/S 756 mmHg 11%
    16:00 +38°C° 0 mm 2 m/S 756 mmHg 11%
    17:00 +37°C° 0 mm 2 m/S 756 mmHg 12%
    18:00 +35°C° 0 mm 2 m/S 757 mmHg 14%
    19:00 +32°C° 0 mm 2 m/S 758 mmHg 16%
    20:00 +30°C° 0 mm 3 m/S 758 mmHg 18%
    21:00 +29°C° 0 mm 3 m/S 758 mmHg 18%
    22:00 +28°C° 0 mm 3 m/S 758 mmHg 18%
    23:00 +28°C° 0 mm 3 m/S 758 mmHg 19%
    Mehr zeigen